This is the latest recevied weather packets stored in our database for station/object W1HVD. If no packets are shown the sender has not sent any weather packets the latest 10 day(s).
| Time | Temp. | Humidity | Pressure | Rain* | Wind** | Luminosity | Snow |
|---|---|---|---|---|---|---|---|
| 1777790356 | 8.89° C | 72% | 1008 hPa | 0 mm | - | 0 W/m² | - |
| 1777790055 | 8.89° C | 71% | 1008.3 hPa | 0 mm | - | 0 W/m² | - |
| 1777789753 | 8.89° C | 69% | 1008.2 hPa | 0 mm | - | 0 W/m² | - |
| 1777789451 | 8.89° C | 68% | 1008.4 hPa | 0 mm | - | 0 W/m² | - |
| 1777789149 | 8.89° C | 70% | 1008.4 hPa | 0 mm | - | 0 W/m² | - |
| 1777788845 | 8.89° C | 69% | 1008.4 hPa | 0 mm | - | 0 W/m² | - |
| 1777788541 | 8.89° C | 71% | 1008.2 hPa | 0 mm | - | 0 W/m² | - |
| 1777788235 | 9.44° C | 75% | 1008.4 hPa | 0 mm | - | 0 W/m² | - |
| 1777787931 | 9.44° C | 77% | 1008.4 hPa | 0 mm | - | 0 W/m² | - |
| 1777787627 | 8.89° C | 79% | 1008.8 hPa | 0 mm | - | 0 W/m² | - |
| 1777787323 | 8.89° C | 84% | 1008.7 hPa | 0 mm | - | 0 W/m² | - |
| 1777787014 | 8.89° C | 90% | 1009.2 hPa | 0 mm | - | 0 W/m² | - |
| 1777786712 | 8.89° C | 91% | 1008.9 hPa | 0 mm | - | 0 W/m² | - |
| 1777786410 | 8.89° C | 94% | 1009 hPa | 0 mm | - | 0 W/m² | - |
| 1777786106 | 8.89° C | 95% | 1008.9 hPa | 0 mm | - | 0 W/m² | - |
| 1777785803 | 8.89° C | 97% | 1009.1 hPa | 0 mm | - | 0 W/m² | - |
| 1777785499 | 8.89° C | 97% | 1008.9 hPa | 0 mm | - | 0 W/m² | - |
| 1777785195 | 8.89° C | 97% | 1009.1 hPa | 0 mm | - | 0 W/m² | - |
| 1777784892 | 8.89° C | 97% | 1009.1 hPa | 0 mm | - | 0 W/m² | - |
| 1777784588 | 8.89° C | 97% | 1009 hPa | 0 mm | - | 0 W/m² | - |
| 1777784286 | 8.89° C | 97% | 1009.2 hPa | 0 mm | - | 0 W/m² | - |
| 1777783984 | 8.89° C | 97% | 1009.6 hPa | 0 mm | - | 0 W/m² | - |
| 1777783679 | 8.89° C | 97% | 1009.4 hPa | 0 mm | - | 0 W/m² | - |
| 1777783371 | 8.89° C | 97% | 1009.6 hPa | 0 mm | - | 0 W/m² | - |
| 1777783069 | 8.89° C | 97% | 1009.5 hPa | 0 mm | - | 0 W/m² | - |
* Rain latest hour (hover to see other rain measurements)
** Current wind speed in m/s (hover to see current wind gust speed)